This is the latest recevied weather packets stored in our database for station/object EA5HPA-11. If no packets are shown the sender has not sent any weather packets the latest 10 day(s).
| Time | Temp. | Humidity | Pressure | Rain* | Wind** | Luminosity | Snow |
|---|---|---|---|---|---|---|---|
| 1788077737 | 24.44° C | 69% | 1018 hPa | 0 mm | - | - | - |
| 1788077436 | 23.89° C | 74% | 1018 hPa | 0 mm | - | - | - |
| 1788077135 | 23.89° C | 74% | 1018 hPa | 0 mm | - | - | - |
| 1788076835 | 23.89° C | 75% | 1018 hPa | 0 mm | - | - | - |
| 1788076534 | 23.89° C | 75% | 1018 hPa | 0 mm | - | - | - |
| 1788076233 | 23.89° C | 75% | 1018 hPa | 0 mm | - | - | - |
| 1788075932 | 23.89° C | 75% | 1018 hPa | 0 mm | - | - | - |
| 1788075631 | 23.89° C | 75% | 1018 hPa | 0 mm | - | - | - |
| 1788075330 | 20° C | 73% | 1018 hPa | 0 mm | - | - | - |
| 1788075030 | 21.67° C | 75% | 1018 hPa | 0 mm | - | - | - |
| 1788074729 | 22.22° C | 75% | 1018 hPa | 0 mm | - | - | - |
| 1788074428 | 21.67° C | 76% | 1018 hPa | 0 mm | - | - | - |
| 1788074127 | 21.67° C | 77% | 1018 hPa | 0 mm | - | - | - |
| 1788073826 | 17.78° C | 72% | 1018 hPa | 0 mm | - | - | - |
| 1788073525 | 17.78° C | 72% | 1018 hPa | 0 mm | - | - | - |
| 1788073225 | 17.78° C | 72% | 1017 hPa | 0 mm | - | - | - |
| 1788072924 | 17.78° C | 72% | 1017 hPa | 0 mm | - | - | - |
| 1788072623 | 17.78° C | 72% | 1017 hPa | 0 mm | - | - | - |
| 1788072322 | 17.78° C | 72% | 1017 hPa | 0 mm | - | - | - |
| 1788072021 | 15.56° C | 82% | 1017 hPa | 0 mm | - | - | - |
| 1788071721 | 15.56° C | 82% | 1017 hPa | 0 mm | - | - | - |
| 1788071419 | 20° C | 83% | 1017 hPa | 0 mm | - | - | - |
| 1788071119 | 20° C | 83% | 1017 hPa | 0 mm | - | - | - |
| 1788070818 | 20° C | 83% | 1017 hPa | 0 mm | - | - | - |
| 1788070517 | 19.44° C | 81% | 1017 hPa | 0 mm | - | - | - |
* Rain latest hour (hover to see other rain measurements)
** Current wind speed in m/s (hover to see current wind gust speed)